When you browse on this site, cookies collect data to enhance your experience and personalize the content and advertising you see.
Visit our Privacy Policy to learn more. By continuing to use the site, you agree to this use of cookies and data.
  • In United Kingdom
  • List of Countries
  • For 7 days
  • Water Temperature
  • Satellite Maps
  • Weather Map
  • Weather Widgets
  • user-avatar
    Login

    Hourly Weather Korsakovka

    Today, 19 November, Monday

    Time Temperature Precipitation Wind Pressure Humidity
    00:00 -2°C° 0 mm 3 mps 754 mmHg 65%
    01:00 -2°C° 0 mm 3 mps 754 mmHg 65%
    02:00 -2°C° 0 mm 3 mps 754 mmHg 65%
    03:00 -2°C° 0 mm 2 mps 754 mmHg 65%
    04:00 -2°C° 0 mm 2 mps 754 mmHg 66%
    05:00 -3°C° 0 mm 2 mps 754 mmHg 66%
    06:00 -3°C° 0 mm 2 mps 754 mmHg 66%
    07:00 -3°C° 0 mm 2 mps 754 mmHg 66%
    08:00 0°C° 0 mm 1 mps 755 mmHg 61%
    09:00 +1°C° 0 mm 1 mps 755 mmHg 55%
    10:00 +2°C° 0 mm 1 mps 755 mmHg 50%
    11:00 +3°C° 0 mm 1 mps 755 mmHg 48%
    12:00 +4°C° 0 mm 1 mps 755 mmHg 46%
    13:00 +4°C° 0 mm 1 mps 755 mmHg 44%
    14:00 +4°C° 0 mm 1 mps 755 mmHg 47%
    15:00 +3°C° 0 mm 1 mps 755 mmHg 50%
    16:00 +2°C° 0 mm 2 mps 755 mmHg 53%
    17:00 +1°C° 0 mm 2 mps 755 mmHg 57%
    18:00 -1°C° 0 mm 2 mps 755 mmHg 60%
    19:00 -2°C° 0 mm 2 mps 756 mmHg 64%
    20:00 -2°C° 0 mm 2 mps 756 mmHg 64%
    21:00 -2°C° 0 mm 3 mps 756 mmHg 65%
    22:00 -4°C° 0 mm 3 mps 756 mmHg 65%
    23:00 -4°C° 0 mm 3 mps 756 mmHg 66%

    Tomorrow, 20 November, Tuesday

    Time Temperature Precipitation Wind Pressure Humidity
    00:00 -4°C° 0 mm 3 mps 756 mmHg 66%
    01:00 -4°C° 0 mm 3 mps 756 mmHg 66%
    02:00 -3°C° 0 mm 2 mps 756 mmHg 66%
    03:00 -3°C° 0 mm 2 mps 756 mmHg 66%
    04:00 -3°C° 0 mm 2 mps 756 mmHg 66%
    05:00 -3°C° 0 mm 2 mps 756 mmHg 66%
    06:00 -3°C° 0 mm 2 mps 756 mmHg 66%
    07:00 -3°C° 0 mm 2 mps 756 mmHg 66%
    08:00 -2°C° 0 mm 3 mps 756 mmHg 63%
    09:00 -1°C° 0 mm 3 mps 756 mmHg 61%
    10:00 -1°C° 0 mm 4 mps 757 mmHg 58%
    11:00 -1°C° 0 mm 5 mps 756 mmHg 56%
    12:00 -1°C° 0 mm 5 mps 756 mmHg 54%
    13:00 -1°C° 0 mm 5 mps 756 mmHg 52%
    14:00 -2°C° 0 mm 5 mps 756 mmHg 53%
    15:00 -2°C° 0 mm 5 mps 756 mmHg 55%
    16:00 -4°C° 0 mm 6 mps 756 mmHg 56%
    17:00 -5°C° 0 mm 5 mps 756 mmHg 58%
    18:00 -5°C° 0 mm 5 mps 757 mmHg 60%
    19:00 -6°C° 0 mm 5 mps 757 mmHg 62%
    20:00 -5°C° 0 mm 4 mps 757 mmHg 60%
    21:00 -5°C° 0 mm 4 mps 757 mmHg 59%
    22:00 -5°C° 0 mm 4 mps 757 mmHg 58%
    23:00 -5°C° 0 mm 3 mps 757 mmHg 57%

    Day after tomorrow, 21 November, Wednesday

    Time Temperature Precipitation Wind Pressure Humidity
    00:00 -5°C° 0 mm 3 mps 757 mmHg 57%
    01:00 -4°C° 0 mm 2 mps 757 mmHg 57%
    02:00 -4°C° 0 mm 2 mps 757 mmHg 58%
    03:00 -2°C° 0 mm 1 mps 757 mmHg 59%
    04:00 -2°C° 0 mm 1 mps 757 mmHg 60%
    05:00 -2°C° 0.1 mm 1 mps 757 mmHg 63%
    06:00 -4°C° 0.1 mm 2 mps 756 mmHg 66%
    07:00 -4°C° 0.1 mm 2 mps 756 mmHg 69%
    08:00 -4°C° 0.1 mm 3 mps 756 mmHg 71%
    09:00 -2°C° 0.1 mm 3 mps 755 mmHg 72%
    10:00 -2°C° 0.1 mm 3 mps 755 mmHg 73%
    11:00 -2°C° 0.3 mm 4 mps 755 mmHg 73%
    12:00 -2°C° 0.3 mm 4 mps 754 mmHg 73%
    13:00 -2°C° 0.3 mm 4 mps 754 mmHg 73%
    14:00 -2°C° 0.2 mm 4 mps 754 mmHg 72%
    15:00 -4°C° 0.2 mm 5 mps 754 mmHg 70%
    16:00 -4°C° 0.2 mm 5 mps 754 mmHg 69%
    17:00 -5°C° 0 mm 5 mps 755 mmHg 69%
    18:00 -6°C° 0 mm 5 mps 755 mmHg 69%
    19:00 -7°C° 0 mm 5 mps 755 mmHg 68%
    20:00 -7°C° 0 mm 5 mps 756 mmHg 68%
    21:00 -8°C° 0 mm 5 mps 756 mmHg 68%
    22:00 -8°C° 0 mm 5 mps 756 mmHg 67%
    23:00 -8°C° 0 mm 4 mps 757 mmHg 67%

    22 November, Thursday

    Time Temperature Precipitation Wind Pressure Humidity
    00:00 -8°C° 0 mm 4 mps 757 mmHg 67%
    01:00 -8°C° 0 mm 4 mps 757 mmHg 67%
    02:00 -8°C° 0 mm 4 mps 757 mmHg 67%
    03:00 -7°C° 0 mm 3 mps 757 mmHg 68%
    04:00 -7°C° 0 mm 3 mps 757 mmHg 68%
    05:00 -6°C° 0 mm 2 mps 757 mmHg 69%
    06:00 -6°C° 0 mm 2 mps 757 mmHg 69%
    07:00 -6°C° 0 mm 2 mps 757 mmHg 69%
    08:00 -3°C° 0 mm 1 mps 756 mmHg 67%
    09:00 -3°C° 0 mm 1 mps 756 mmHg 65%
    10:00 -2°C° 0 mm 1 mps 756 mmHg 63%
    11:00 -2°C° 0.1 mm 1 mps 756 mmHg 62%
    12:00 -1°C° 0.1 mm 1 mps 755 mmHg 61%
    13:00 -1°C° 0.1 mm 1 mps 755 mmHg 60%
    14:00 -3°C° 0.2 mm 2 mps 754 mmHg 65%
    15:00 -4°C° 0.2 mm 2 mps 754 mmHg 70%
    16:00 -4°C° 0.2 mm 2 mps 753 mmHg 75%
    17:00 -4°C° 0.4 mm 2 mps 753 mmHg 79%
    18:00 -4°C° 0.4 mm 2 mps 753 mmHg 83%
    19:00 -5°C° 0.4 mm 2 mps 752 mmHg 87%
    20:00 -5°C° 0.5 mm 2 mps 752 mmHg 89%
    21:00 -5°C° 0.5 mm 2 mps 752 mmHg 90%
    22:00 -5°C° 0.5 mm 2 mps 751 mmHg 91%
    23:00 -6°C° 0.2 mm 3 mps 751 mmHg 90%

    23 November, Friday

    Time Temperature Precipitation Wind Pressure Humidity
    00:00 -6°C° 0.2 mm 3 mps 750 mmHg 88%
    01:00 -8°C° 0.2 mm 4 mps 750 mmHg 87%
    02:00 -8°C° 0 mm 4 mps 749 mmHg 84%
    03:00 -8°C° 0 mm 4 mps 749 mmHg 81%
    04:00 -8°C° 0 mm 4 mps 749 mmHg 79%
    05:00 -8°C° 0.1 mm 4 mps 749 mmHg 78%
    06:00 -8°C° 0.1 mm 5 mps 749 mmHg 76%
    07:00 -8°C° 0.1 mm 5 mps 749 mmHg 75%
    08:00 -7°C° 0.1 mm 5 mps 749 mmHg 72%
    09:00 -7°C° 0.1 mm 4 mps 749 mmHg 68%
    10:00 -5°C° 0.1 mm 4 mps 750 mmHg 64%
    11:00 -6°C° 0.1 mm 5 mps 750 mmHg 63%
    12:00 -6°C° 0.1 mm 5 mps 750 mmHg 62%
    13:00 -6°C° 0.1 mm 5 mps 750 mmHg 61%
    14:00 -6°C° 0.1 mm 5 mps 750 mmHg 63%
    15:00 -8°C° 0.1 mm 6 mps 750 mmHg 66%
    16:00 -8°C° 0.1 mm 6 mps 751 mmHg 69%
    17:00 -9°C° 0.1 mm 6 mps 751 mmHg 71%
    18:00 -10°C° 0.1 mm 5 mps 751 mmHg 74%
    19:00 -10°C° 0.1 mm 5 mps 752 mmHg 76%
    20:00 -10°C° 0.1 mm 5 mps 752 mmHg 77%
    21:00 -9°C° 0.1 mm 4 mps 752 mmHg 77%
    22:00 -10°C° 0.1 mm 4 mps 752 mmHg 78%
    23:00 -9°C° 0.1 mm 4 mps 752 mmHg 78%

    24 November, Saturday

    Time Temperature Precipitation Wind Pressure Humidity
    00:00 -9°C° 0.1 mm 4 mps 752 mmHg 79%
    01:00 -9°C° 0.1 mm 4 mps 752 mmHg 79%
    02:00 -9°C° 0.2 mm 4 mps 752 mmHg 80%
    03:00 -10°C° 0.2 mm 5 mps 752 mmHg 81%
    04:00 -10°C° 0.2 mm 5 mps 752 mmHg 82%
    05:00 -10°C° 0.1 mm 5 mps 752 mmHg 81%
    06:00 -10°C° 0.1 mm 5 mps 752 mmHg 80%
    07:00 -10°C° 0.1 mm 5 mps 752 mmHg 79%
    08:00 -10°C° 0.1 mm 6 mps 752 mmHg 77%
    09:00 -9°C° 0.1 mm 6 mps 752 mmHg 76%
    10:00 -9°C° 0.1 mm 6 mps 752 mmHg 74%
    11:00 -9°C° 0.2 mm 6 mps 752 mmHg 73%
    12:00 -8°C° 0.2 mm 7 mps 752 mmHg 72%
    13:00 -8°C° 0.2 mm 7 mps 751 mmHg 71%
    14:00 -8°C° 0.3 mm 7 mps 751 mmHg 73%
    15:00 -8°C° 0.3 mm 6 mps 751 mmHg 76%
    16:00 -8°C° 0.3 mm 6 mps 751 mmHg 78%
    17:00 -9°C° 0.2 mm 6 mps 751 mmHg 79%
    18:00 -9°C° 0.2 mm 6 mps 751 mmHg 80%
    19:00 -8°C° 0.2 mm 5 mps 751 mmHg 80%
    20:00 -8°C° 0.2 mm 5 mps 751 mmHg 81%
    21:00 -8°C° 0.2 mm 5 mps 751 mmHg 83%
    22:00 -8°C° 0.2 mm 4 mps 751 mmHg 84%
    23:00 -8°C° 0.3 mm 5 mps 750 mmHg 85%
    Show more